Location: Newark
(43.1897°N, 0.7711°W)
Time: 09:33:35
(UTC+00:00)

ISS - Visible Passes

Search period start: 15 November 2019 00:00
Search period end: 25 November 2019 00:00
Orbit: 412 x 421 km, 51.6° (Epoch: 15 November)

Date Brightness Start Highest point End Pass type
(mag) Time Alt. Az. Time Alt. Az. Time Alt. Az.
20 Nov -1.0 19:01:31 10° SW 19:02:06 14° SSW 19:02:06 14° SSW visible
21 Nov -2.5 18:13:31 10° SSW 18:16:01 27° SSE 18:16:01 27° SSE visible
22 Nov -1.8 17:25:54 10° S 17:28:10 17° SE 17:29:50 13° E visible
22 Nov -1.4 19:01:16 10° WSW 19:02:46 24° WSW 19:02:46 24° WSW visible
23 Nov -3.9 18:12:48 10° SW 18:16:09 77° SE 18:16:29 67° E visible
24 Nov -3.2 17:24:33 10° SW 17:27:45 45° SE 17:30:08 16° ENE visible
24 Nov -1.3 19:01:29 10° W 19:03:03 22° WNW 19:03:03 22° WNW visible
